Regional Weather Roundup
Issued by NWS

Home | Current Version | Previous Version | Text Only | Print | Product List | Glossary Off
Versions: 1 2 3 4 5 6 7 8 9 10 11 12 13 14 15 16 17 18 19 20 21 22 23 24 25 26 27 28 29 30 31 32 33 34 35 36 37 38 39 40 41 42 43 44 45 46 47 48 49 50

000
ASUS43 KOAX 302110
RWRNE

WEATHER ROUNDUP FOR NEBRASKA
NATIONAL WEATHER SERVICE OMAHA NE
400 PM CDT TUE JUN 30 2015

NOTES: SATELLITE DATA IS BEING USED TO AUGMENT CLOUD COVER ABOVE
       12000 FEET.
       "FAIR" INDICATES FEW OR NO CLOUDS BELOW 12,000 FEET WITH NO
       SIGNIFICANT WEATHER AND/OR OBSTRUCTIONS TO VISIBILITY.

  * THESE STATIONS DO NOT REPORT WEATHER SUCH AS RAIN...SNOW OR FOG.

NEZ001>004-019>022-054>056-302200-
NEBRASKA PANHANDLE

CITY           SKY/WX    TMP DP  RH WIND       PRES   REMARKS
SCOTTSBLUFF    MOSUNNY   98  48  18 VRB3      29.94F HX  94
ALLIANCE       MOSUNNY   93  51  23 W9        29.94F HX  90
CHADRON        SUNNY     95  58  28 CALM      29.88F HX  94
KIMBALL          N/A    N/A N/A N/A MISG        N/A
SIDNEY         MOSUNNY   92  53  26 VRB7      29.99F
$$

NEZ057>060-069>072-079>082-302200-
SOUTHWEST NEBRASKA

CITY           SKY/WX    TMP DP  RH WIND       PRES   REMARKS
NORTH PLATTE   PTSUNNY   94  61  33 SW7       29.88F HX  94
IMPERIAL       SUNNY     99  50  19 SW10      29.91F HX  96
LEXINGTON      PTSUNNY   96  56  25 SW6       29.89F HX  94
MCCOOK         SUNNY     99  50  19 W7        29.88F HX  96
OGALLALA       MOSUNNY   97  55  24 SW10      29.91F HX  95
$$

NEZ005>010-023>029-035>040-094-302200-
NORTH CENTRAL NEBRASKA

CITY           SKY/WX    TMP DP  RH WIND       PRES   REMARKS
VALENTINE      CLOUDY    82  65  56 E12       29.89S
AINSWORTH      CLOUDY    82  65  57 E12       29.89F
BROKEN BOW     CLOUDY    89  65  44 SW6       29.88F HX  91
O`NEILL        CLOUDY    80  63  56 E14       29.90F
ORD            CLOUDY    87  68  52 SE12      29.86F HX  90
THEDFORD       CLOUDY    93  57  29 W6        29.89F HX  92
$$

NEZ041-046>049-061>064-073>077-083>087-302200-
SOUTH CENTRAL NEBRASKA

CITY           SKY/WX    TMP DP  RH WIND       PRES   REMARKS
GRAND ISLAND   CLOUDY    92  68  45 SE10      29.87F HX  96
AURORA         CLOUDY    89  67  47 SE10      29.88F HX  91
HASTINGS       PTSUNNY   93  62  35 S7        29.87F HX  93
HEBRON         CLOUDY    93  54  26 SW5       29.86F HX  91
HOLDREGE       MOSUNNY   92  54  27 SW3       29.89F HX  90
KEARNEY *      PTSUNNY   97  59  28 SW14G20   29.87F HX  96
YORK           PTSUNNY   86  66  51 SE12      29.88F
$$

NEZ011>018-030>034-042>045-302200-
NORTHEAST NEBRASKA

CITY           SKY/WX    TMP DP  RH WIND       PRES   REMARKS
NORFOLK        CLOUDY    73  65  75 NE3       29.92S
ALBION         PTSUNNY   82  62  49 SE15      29.90S
BLAIR          CLOUDY    74  66  76 NE8       29.92S
COLUMBUS *     PTSUNNY  N/A N/A N/A MISG        N/A
FREMONT        CLOUDY    77  63  61 E5        29.91F
TEKAMAH        LGT RAIN  73  68  84 SE3       29.91S
WAYNE          CLOUDY    74  65  74 E5        29.92F
$$

NEZ050>053-065>068-078-088>093-302200-
SOUTHEAST NEBRASKA

CITY           SKY/WX    TMP DP  RH WIND       PRES   REMARKS
LINCOLN        CLOUDY    85  61  44 E10       29.90F
OMAHA EPPLEY   LGT RAIN  75  69  81 N6        29.91R
BEATRICE       PTSUNNY   89  68  48 E10       29.88S HX  93
FALLS CITY     CLOUDY    81  69  67 E7        29.91F
NEBRASKA CITY  CLOUDY    80  62  54 SE5       29.91F
PLATTSMOUTH    CLOUDY    76  66  70 CALM      29.91F
$$

NEZ044-045-051>053-067-302200-
OMAHA AREA

CITY           SKY/WX    TMP DP  RH WIND       PRES   REMARKS
OMAHA EPPLEY   LGT RAIN  75  69  81 N6        29.91R
BLAIR          CLOUDY    74  66  76 NE8       29.92S
FREMONT        CLOUDY    77  63  61 E5        29.91F
MILLARD        CLOUDY    78  65  66 CALM      29.91R
OFFUTT AFB     CLOUDY    76  67  71 NE5       29.91R
PLATTSMOUTH    CLOUDY    76  66  70 CALM      29.91F
WAHOO          FAIR      78  64  60 E7        29.91F
$$


USA.gov is the U.S. government's official web portal to all federal, state and local government web resources and services.